Regional Weather Roundup
Issued by NWS

Home | Current Version | Previous Version | Text Only | Print | Product List | Glossary On
Versions: 1 2 3 4 5 6 7 8 9 10 11 12 13 14 15 16 17 18 19 20 21 22 23 24 25 26 27 28 29 30 31 32 33 34 35 36 37 38 39 40 41 42 43 44 45 46 47 48 49 50
000
ASUS43 KMKX 141810
RWRWI

WISCONSIN REGIONAL WEATHER ROUNDUP
NATIONAL WEATHER SERVICE MILWAUKEE/SULLIVAN WI
1200 PM CST THU DEC 14 2017

NOTE: "FAIR" INDICATES FEW OR NO CLOUDS BELOW 12,000 FEET WITH NO
SIGNIFICANT WEATHER AND/OR OBSTRUCTIONS TO VISIBILITY.

WIZ001-002-006>008-014>016-023>028-141900-
NORTHWEST WISCONSIN

CITY           SKY/WX    TMP DP  RH WIND       PRES   REMARKS
SUPERIOR ARPT  LGT SNOW  19  14  81 W6        30.01F WCI  10
6HR MIN TEMP:  11; 6HR MAX TEMP:  19;

ASHLAND        LGT SNOW  18  12  77 SW10      29.99F WCI   6
6HR MIN TEMP:   9; 6HR MAX TEMP:  18; 6HR PCP: TRACE;

HAYWARD        FLURRIES  19  13  77 W8        29.97S WCI   9
6HR MIN TEMP:  16; 6HR MAX TEMP:  19; 6HR PCP: TRACE;

SIREN          CLOUDY    18  13  80 W7        30.01F WCI   8
6HR MIN TEMP:  17; 6HR MAX TEMP:  18;

CUMBERLAND     FLURRIES  19  14  79 W10       29.98F WCI   8
RICE LAKE      LGT SNOW  20  17  87 CALM      30.01S
6HR MIN TEMP:  15; 6HR MAX TEMP:  20;

CHETEK         CLOUDY    20  16  85 SW5       30.00F WCI  14
6HR MIN TEMP:  13; 6HR MAX TEMP:  20;

LADYSMITH      LGT SNOW  20  17  86 SW6       29.99F WCI  12
6HR MIN TEMP:   9; 6HR MAX TEMP:  20;

EAU CLAIRE     CLOUDY    21  15  78 SW10      30.02F WCI  10
6HR MIN TEMP:  10; 6HR MAX TEMP:  21; 6HR PCP: TRACE;

MENOMONIE      CLOUDY    25  17  70 SW12      30.02F WCI  14
6HR MIN TEMP:  13; 6HR MAX TEMP:  25;

NEW RICHMOND   FLURRIES  20  14  79 W7        30.02S WCI  11
6HR MIN TEMP:  17; 6HR MAX TEMP:  20;

OSCEOLA        LGT SNOW  20  15  81 W6        30.06S WCI  12
6HR MIN TEMP:  16; 6HR MAX TEMP:  20;

$$

WIZ003>005-009-010-017-018-141900-
NORTH CENTRAL WISCONSIN

CITY           SKY/WX    TMP DP  RH WIND       PRES   REMARKS
MANITOWISH WTR LGT SNOW  13  10  87 W8        29.93S WCI   2
6HR MIN TEMP:   7; 6HR MAX TEMP:  13;

ARBOR VITAE    LGT SNOW  17  12  82 W7        29.93S WCI   7
6HR MIN TEMP:  11; 6HR MAX TEMP:  17;

WOODRUFF       LGT SNOW  17  12  82 W7        29.93S WCI   7
6HR MIN TEMP:  11; 6HR MAX TEMP:  17;

RHINELANDER    FLURRIES  16  12  84 W8G20     29.94S WCI   5
6HR MIN TEMP:   5; 6HR MAX TEMP:  16; 6HR PCP: TRACE;

EAGLE RIVER    LGT SNOW  15   9  78 NW8       29.92F WCI   3
6HR MIN TEMP:   7; 6HR MAX TEMP:  15;

LAND O LAKES   FLURRIES  17  10  74 W7        29.93S WCI   7
6HR MIN TEMP:  11; 6HR MAX TEMP:  18;

PHILLIPS       LGT SNOW  15  14  94 CALM      29.96S
6HR MIN TEMP:  -7; 6HR MAX TEMP:  15;

TOMAHAWK       LGT SNOW  16  13  87 W3        29.96F
6HR MIN TEMP:  -1; 6HR MAX TEMP:  16;

MEDFORD        LGT SNOW  16  14  91 W7        29.96F WCI   6
6HR MIN TEMP:   3; 6HR MAX TEMP:  16;

MERRILL        FLURRIES  18  14  85 W7        29.98S WCI   8
$$

WIZ029-030-035-036-043>047-141900-
CENTRAL WISCONSIN

CITY           SKY/WX    TMP DP  RH WIND       PRES   REMARKS
WAUSAU         FLURRIES  18  13  80 W13       29.97F WCI   5
6HR MIN TEMP:   3; 6HR MAX TEMP:  18; 6HR PCP: TRACE;

MOSINEE        LGT SNOW  18  16  93 SW10      30.00F WCI   6
MARSHFIELD     CLOUDY    17  13  84 W6        29.99F WCI   9
6HR MIN TEMP:   1; 6HR MAX TEMP:  17; 6HR PCP: TRACE;

STEVENS POINT  CLOUDY    18  16  91 W6        30.01F WCI  10
6HR MIN TEMP:  -4; 6HR MAX TEMP:  18;

WAUPACA        MOSUNNY   25  13  61 W5        30.02F WCI  19
WAUTOMA        PTSUNNY   25  14  63 CALM      30.03F
6HR MIN TEMP:  -5; 6HR MAX TEMP:  28;

WISC RAPIDS    CLOUDY    19  10  68 SW3       30.03F
6HR MIN TEMP:  -3; 6HR MAX TEMP:  19;

CAMP DOUGLAS   MOSUNNY   25  12  58 SW8       30.03F WCI  16
$$

WIZ011>013-019>022-031-037>040-048>050-141900-
NORTHEAST WISCONSIN

CITY           SKY/WX    TMP DP  RH WIND       PRES   REMARKS
ANTIGO         LGT SNOW  16  12  84 W8        29.95S WCI   6
6HR MIN TEMP:   4; 6HR MAX TEMP:  17;

SHAWANO        MOSUNNY   22  13  68 CALM      30.01F
6HR MIN TEMP:   3; 6HR MAX TEMP:  22;

OCONTO         SUNNY     19   9  64 W6        30.02F WCI  11
6HR MIN TEMP:  -9; 6HR MAX TEMP:  19;

STURGEON BAY   SUNNY     21  10  62 NW7       30.01F WCI  12
6HR MIN TEMP:  14; 6HR MAX TEMP:  21;

GREEN BAY      SUNNY     18   9  68 SW3       30.02F
6HR MIN TEMP:  -1; 6HR MAX TEMP:  19;

MANITOWOC      SUNNY     26  14  60 CALM      30.04F
6HR MIN TEMP:   3; 6HR MAX TEMP:  26;

APPLETON       MOSUNNY   18   9  68 W5        30.01F WCI  11
CLINTONVILLE   MOSUNNY   19  10  68 SW3       30.02F
OSHKOSH        CLOUDY    19  11  70 NW5       30.03F WCI  12
6HR MIN TEMP:   3; 6HR MAX TEMP:  19;

$$

WIZ032>034-041-042-053>061-141900-
SOUTHWEST WISCONSIN

CITY           SKY/WX    TMP DP  RH WIND       PRES   REMARKS
LA CROSSE      SUNNY     24  15  68 S8        30.06F WCI  15
6HR MIN TEMP:   7; 6HR MAX TEMP:  24;

SPARTA         PTSUNNY   25  14  62 W7        30.05F WCI  18
6HR MIN TEMP:  -3; 6HR MAX TEMP:  25;

VIROQUA        SUNNY     22  15  75 S6        30.02F WCI  15
6HR MIN TEMP:   8; 6HR MAX TEMP:  22;

BOSCOBEL       SUNNY     25  11  55 VRB6      30.08F WCI  18
6HR MIN TEMP:   6; 6HR MAX TEMP:  25;

PRAIRIE DU CHI SUNNY     26  11  53 S5        30.08F WCI  20
6HR MIN TEMP:  11; 6HR MAX TEMP:  26;

PLATTEVILLE    SUNNY     25  12  57 CALM      30.05F
6HR MIN TEMP:   8; 6HR MAX TEMP:  26;

$$

WIZ056-057-062-063-064-067-068-141900-
SOUTH CENTRAL WISCONSIN

CITY           SKY/WX    TMP DP  RH WIND       PRES   REMARKS
REEDSBURG      SUNNY     23  11  59 CALM      30.04F
6HR MIN TEMP:   7; 6HR MAX TEMP:  23;

BARABOO/DELLS  SUNNY     23  11  60 W5        30.03F WCI  17
6HR MIN TEMP:   6; 6HR MAX TEMP:  23;

LONE ROCK      SUNNY     23  15  71 VRB3      30.07F
6HR MIN TEMP:   6; 6HR MAX TEMP:  23;

MINERAL POINT  SUNNY     27  14  59 W5        30.03F WCI  21
MADISON        MOSUNNY   23  10  57 CALM      30.04F
6HR MIN TEMP:   7; 6HR MAX TEMP:  24;

MIDDLETON      MOSUNNY   26  12  55 NW6       30.05F WCI  20
6HR MIN TEMP:  13; 6HR MAX TEMP:  27;

WATERTOWN      MOSUNNY   21  11  66 W3        30.05F
6HR MIN TEMP:   3; 6HR MAX TEMP:  21;

MONROE         SUNNY     25  10  54 W6        30.04F WCI  18
JANESVILLE     PTSUNNY   27  12  54 NW7       30.06F WCI  19
$$

WIZ051-052-058>065-066-070>072-141900-
SOUTHEAST WISCONSIN

CITY           SKY/WX    TMP DP  RH WIND       PRES   REMARKS
MILWAUKEE      MOSUNNY   23  10  57 W7        30.06F WCI  15
6HR MIN TEMP:  14; 6HR MAX TEMP:  23;

WAUKESHA       SUNNY     19   9  63 W6        30.06F WCI  11
MILWAUKEE/TIMM SUNNY     21   9  58 W7        30.06F WCI  13
RACINE         SUNNY     22  10  60 NW6       30.07F WCI  14
6HR MIN TEMP:  12; 6HR MAX TEMP:  22;

BURLINGTON     SUNNY     24  14  66 NW10      30.06S WCI  13
6HR MIN TEMP:   6; 6HR MAX TEMP:  24;

KENOSHA        SUNNY     23  11  60 VRB5      30.06F WCI  17
6HR MIN TEMP:  12; 6HR MAX TEMP:  23;

FOND DU LAC    FLURRIES  20  10  65 S5        30.04F WCI  13
6HR MIN TEMP:   0; 6HR MAX TEMP:  20; 6HR PCP: TRACE;

SHEBOYGAN      SUNNY     19  10  68 W6        30.03F WCI  11
6HR MIN TEMP:   1; 6HR MAX TEMP:  19;

WEST BEND      SUNNY     19  10  68 NW7       30.03F WCI  10
JUNEAU         SUNNY     17   9  70 SW5       30.05F WCI  10
6HR MIN TEMP:   3; 6HR MAX TEMP:  17;

$$

LSZ147-162-141900-
LAKE SUPERIOR

STATION/POSITION TIME  TEMP    WIND        PRES    WAVE
                       AIR SEA DIR/SP/G            HT/PER
                 (UTC) (F)     (DEG/KT/KT) (MB)    (FT/S)
DEVILS ISLAND    1800   20     250/  8/  9 1016.1F
SAXON HARBOR     1730   19                 1015.6S
$$

LMZ867-665-643>646-141900-
LAKE MICHIGAN

STATION/POSITION TIME  TEMP    WIND        PRES    WAVE
                       AIR SEA DIR/SP/G            HT/PER
                 (UTC) (F)     (DEG/KT/KT) (MB)    (FT/S)
NORTHPORT PIER   1755   21     300/  7/ 14 1015.6F
KEWAUNEE LAKESHO 1742   20     290/  6/  8 1016.0F
SHEBOYGAN LAKESH 1800   19     290/  8/ 10 1018.4F
PORT WASHI



USA.gov is the U.S. government's official web portal to all federal, state and local government web resources and services.